{"data":{"norad_id":68333,"epoch":"2026-05-24T20:19:17.515200Z","epoch_age_seconds":91429,"freshness":"FRESH","line1":"1 68333U 26059N   26144.84673050  .00071302  00000+0  12771-2 0  9997","line2":"2 68333  53.1592 351.1250 0000847  84.6855 275.4251 15.49337287  9882","mean_motion":15.49337287,"eccentricity":8.47e-5,"inclination_deg":53.1592,"raan_deg":351.125,"arg_perigee_deg":84.6855,"mean_anomaly_deg":275.4251,"bstar":0.0012771,"rev_number":988,"period_min":92.942964200409,"perigee_km":418.08786370336,"apogee_km":419.23924171699,"semimajor_km":6796.8005527102,"source":"CELESTRAK","updated_at":"2026-05-25T13:38:21.924018Z"}}